Terminal Aerodrome Forecast
Issued by NWS Dodge City, KS

Home | Current Version | Previous Version | Graphics & Text | Print | Product List | Glossary Off
Versions: 1 2 3 4 5 6 7 8 9 10 11 12 13 14 15 16 17 18 19 20 21 22 23 24

000
FTUS43 KDDC 252328 AAB
TAFDDC
TAF AMD
KDDC 252328Z 2523/2624 01011KT P6SM SCT006 SCT070
     FM260100 36009KT P6SM BKN006
     FM260300 36010KT P6SM OVC003
     FM261500 01011KT P6SM OVC008
     FM261700 01011KT P6SM BKN010
     FM261900 02011KT P6SM BKN020=

USA.gov is the U.S. government's official web portal to all federal, state and local government web resources and services.